Time,TemperatureF,DewpointF,PressureIn,WindDirection,WindDirectionDegrees,WindSpeedMPH,WindSpeedGustMPH,Humidity,HourlyPrecipIn,Conditions,Clouds,dailyrainin,SoftwareType,DateUTC
2013-09-21 00:04:00,73.0,63.4,29.70,SSE,157,0.0,-999.0,72,-99.99,,,0.00,Acu-Link.com,2013-09-21 04:04:00,
2013-09-21 00:20:00,72.3,63.5,29.70,ESE,112,0.0,-999.0,74,-99.99,,,0.00,Acu-Link.com,2013-09-21 04:20:00,
2013-09-21 00:35:00,72.1,63.3,29.70,ESE,112,0.0,-999.0,74,-99.99,,,0.00,Acu-Link.com,2013-09-21 04:35:00,
2013-09-21 00:50:00,72.1,63.7,29.69,SE,135,0.0,-999.0,75,-99.99,,,0.00,Acu-Link.com,2013-09-21 04:50:00,
2013-09-21 01:05:00,72.0,64.8,29.69,ESE,112,0.0,-999.0,78,-99.99,,,0.00,Acu-Link.com,2013-09-21 05:05:00,
2013-09-21 01:20:00,72.0,65.8,29.68,SE,135,0.0,-999.0,81,-99.99,,,0.00,Acu-Link.com,2013-09-21 05:20:00,
2013-09-21 01:36:00,72.5,65.2,29.68,South,180,0.0,-999.0,78,-99.99,,,0.00,Acu-Link.com,2013-09-21 05:36:00,
2013-09-21 01:51:00,71.6,65.5,29.68,SE,135,0.0,-999.0,81,-99.99,,,0.00,Acu-Link.com,2013-09-21 05:51:00,
2013-09-21 02:06:00,71.4,65.3,29.68,West,270,1.7,-999.0,81,-99.99,,,0.00,Acu-Link.com,2013-09-21 06:06:00,
2013-09-21 02:22:00,71.1,65.3,29.67,SE,135,0.0,-999.0,82,-99.99,,,0.00,Acu-Link.com,2013-09-21 06:22:00,
2013-09-21 02:37:00,71.1,65.3,29.67,South,180,0.0,-999.0,82,-99.99,,,0.00,Acu-Link.com,2013-09-21 06:37:00,
2013-09-21 02:52:00,71.1,66.0,29.66,SE,135,0.0,-999.0,84,-99.99,,,0.00,Acu-Link.com,2013-09-21 06:52:00,
2013-09-21 03:08:00,70.9,66.5,29.66,East,90,0.0,-999.0,86,-99.99,,,0.00,Acu-Link.com,2013-09-21 07:08:00,
2013-09-21 03:23:00,70.7,66.6,29.65,SSW,202,0.0,-999.0,87,-99.99,,,0.00,Acu-Link.com,2013-09-21 07:23:00,
2013-09-21 03:38:00,70.5,66.4,29.65,ESE,112,0.0,-999.0,87,-99.99,,,0.00,Acu-Link.com,2013-09-21 07:38:00,
2013-09-21 03:53:00,71.2,67.1,29.64,SE,135,0.0,-999.0,87,-99.99,,,0.00,Acu-Link.com,2013-09-21 07:53:00,
2013-09-21 04:11:00,70.5,66.4,29.64,WNW,292,0.0,-999.0,87,-99.99,,,0.00,Acu-Link.com,2013-09-21 08:11:00,
2013-09-21 04:27:00,70.5,66.4,29.64,SE,135,0.0,-999.0,87,-99.99,,,0.00,Acu-Link.com,2013-09-21 08:27:00,
2013-09-21 04:42:00,70.3,66.6,29.64,East,90,1.1,-999.0,88,-99.99,,,0.00,Acu-Link.com,2013-09-21 08:42:00,
2013-09-21 04:58:00,70.3,66.9,29.63,WNW,292,0.0,-999.0,89,-99.99,,,0.00,Acu-Link.com,2013-09-21 08:58:00,
2013-09-21 05:13:00,70.5,67.7,29.63,NNW,337,1.7,-999.0,91,-99.99,,,0.00,Acu-Link.com,2013-09-21 09:13:00,
2013-09-21 05:28:00,70.2,67.4,29.62,SE,135,0.0,-999.0,91,-99.99,,,0.00,Acu-Link.com,2013-09-21 09:28:00,
2013-09-21 05:43:00,70.2,67.4,29.63,SE,135,0.0,-999.0,91,-99.99,,,0.00,Acu-Link.com,2013-09-21 09:43:00,
2013-09-21 05:58:00,70.0,67.6,29.63,WSW,247,0.0,-999.0,92,-99.99,,,0.00,Acu-Link.com,2013-09-21 09:58:00,
2013-09-21 06:13:00,69.4,67.0,29.63,WSW,247,0.0,-999.0,92,-99.99,,,0.00,Acu-Link.com,2013-09-21 10:13:00,
2013-09-21 06:28:00,69.3,66.9,29.64,WSW,247,0.0,-999.0,92,-99.99,,,0.00,Acu-Link.com,2013-09-21 10:28:00,
2013-09-21 06:44:00,70.0,68.2,29.64,NNW,337,0.0,-999.0,94,-99.99,,,0.00,Acu-Link.com,2013-09-21 10:44:00,
2013-09-21 06:59:00,69.4,67.6,29.64,NNW,337,0.0,-999.0,94,-99.99,,,0.00,Acu-Link.com,2013-09-21 10:59:00,
2013-09-21 07:14:00,69.8,68.3,29.64,ESE,112,0.0,-999.0,95,-99.99,,,0.00,Acu-Link.com,2013-09-21 11:14:00,
2013-09-21 07:29:00,69.6,68.1,29.64,ESE,112,0.0,-999.0,95,-99.99,,,0.00,Acu-Link.com,2013-09-21 11:29:00,
2013-09-21 07:45:00,70.3,69.1,29.65,SSE,157,0.0,-999.0,96,-99.99,,,0.00,Acu-Link.com,2013-09-21 11:45:00,
2013-09-21 08:00:00,73.4,70.9,29.65,WNW,292,0.0,-999.0,92,-99.99,,,0.00,Acu-Link.com,2013-09-21 12:00:00,
2013-09-21 08:15:00,77.2,71.3,29.66,West,270,0.0,-999.0,82,-99.99,,,0.00,Acu-Link.com,2013-09-21 12:15:00,
2013-09-21 08:30:00,82.9,73.3,29.67,West,270,0.0,-999.0,73,-99.99,,,0.00,Acu-Link.com,2013-09-21 12:30:00,
2013-09-21 08:46:00,84.2,73.8,29.67,SSW,202,0.0,-999.0,71,-99.99,,,0.00,Acu-Link.com,2013-09-21 12:46:00,
2013-09-21 09:16:00,80.2,69.5,29.67,WNW,292,1.7,-999.0,70,-99.99,,,0.00,Acu-Link.com,2013-09-21 13:16:00,
2013-09-21 09:31:00,83.1,70.5,29.67,NNW,337,1.7,-999.0,66,-99.99,,,0.00,Acu-Link.com,2013-09-21 13:31:00,
2013-09-21 09:47:00,84.6,71.1,29.67,ESE,112,2.7,-999.0,64,-99.99,,,0.00,Acu-Link.com,2013-09-21 13:47:00,
2013-09-21 10:02:00,83.8,70.3,29.66,West,270,3.2,-999.0,64,-99.99,,,0.00,Acu-Link.com,2013-09-21 14:02:00,
2013-09-21 10:17:00,85.3,71.2,29.66,WSW,247,1.7,-999.0,63,-99.99,,,0.00,Acu-Link.com,2013-09-21 14:17:00,
2013-09-21 10:33:00,84.6,67.1,29.65,SW,225,3.7,-999.0,56,-99.99,,,0.00,Acu-Link.com,2013-09-21 14:33:00,
2013-09-21 10:49:00,86.5,67.3,29.65,ESE,112,2.7,-999.0,53,-99.99,,,0.00,Acu-Link.com,2013-09-21 14:49:00,
2013-09-21 11:04:00,85.3,66.7,29.65,SSE,157,2.7,-999.0,54,-99.99,,,0.00,Acu-Link.com,2013-09-21 15:04:00,
2013-09-21 11:19:00,89.2,68.1,29.64,East,90,1.1,-999.0,50,-99.99,,,0.00,Acu-Link.com,2013-09-21 15:19:00,
2013-09-21 11:35:00,88.3,67.3,29.64,East,90,1.7,-999.0,50,-99.99,,,0.00,Acu-Link.com,2013-09-21 15:35:00,
2013-09-21 11:50:00,90.1,67.7,29.64,WNW,292,1.7,-999.0,48,-99.99,,,0.00,Acu-Link.com,2013-09-21 15:50:00,
2013-09-21 12:05:00,90.9,68.5,29.64,WNW,292,1.1,-999.0,48,-99.99,,,0.00,Acu-Link.com,2013-09-21 16:05:00,
2013-09-21 12:20:00,87.6,66.0,29.63,SSE,157,1.7,-999.0,49,-99.99,,,0.00,Acu-Link.com,2013-09-21 16:20:00,
2013-09-21 12:35:00,90.0,68.2,29.63,West,270,2.7,-999.0,49,-99.99,,,0.00,Acu-Link.com,2013-09-21 16:35:00,
2013-09-21 12:50:00,90.5,67.5,29.62,WSW,247,2.2,-999.0,47,-99.99,,,0.00,Acu-Link.com,2013-09-21 16:50:00,
2013-09-21 13:05:00,90.9,67.8,29.61,East,90,1.7,-999.0,47,-99.99,,,0.00,Acu-Link.com,2013-09-21 17:05:00,
2013-09-21 13:21:00,86.4,65.5,29.60,ENE,67,1.7,-999.0,50,-99.99,,,0.00,Acu-Link.com,2013-09-21 17:21:00,
2013-09-21 13:36:00,88.0,66.4,29.59,East,90,2.2,-999.0,49,-99.99,,,0.00,Acu-Link.com,2013-09-21 17:36:00,
2013-09-21 13:52:00,90.7,67.7,29.58,NE,45,1.7,-999.0,47,-99.99,,,0.00,Acu-Link.com,2013-09-21 17:52:00,
2013-09-21 14:07:00,91.2,66.8,29.57,SW,225,2.7,-999.0,45,-99.99,,,0.00,Acu-Link.com,2013-09-21 18:07:00,
2013-09-21 14:23:00,88.9,66.6,29.57,SSE,157,0.0,-999.0,48,-99.99,,,0.00,Acu-Link.com,2013-09-21 18:23:00,
2013-09-21 14:38:00,91.8,67.4,29.56,East,90,2.2,-999.0,45,-99.99,,,0.00,Acu-Link.com,2013-09-21 18:38:00,
2013-09-21 14:53:00,89.2,66.9,29.55,SSE,157,2.2,-999.0,48,-99.99,,,0.00,Acu-Link.com,2013-09-21 18:53:00,
2013-09-21 15:08:00,91.9,67.5,29.53,NE,45,1.1,-999.0,45,-99.99,,,0.00,Acu-Link.com,2013-09-21 19:08:00,
2013-09-21 15:23:00,92.5,65.3,29.54,NNE,22,3.7,-999.0,41,-99.99,,,0.00,Acu-Link.com,2013-09-21 19:23:00,
2013-09-21 15:39:00,91.2,66.2,29.52,ESE,112,3.2,-999.0,44,-99.99,,,0.00,Acu-Link.com,2013-09-21 19:39:00,
2013-09-21 15:54:00,90.3,65.4,29.52,East,90,2.7,-999.0,44,-99.99,,,0.00,Acu-Link.com,2013-09-21 19:54:00,
2013-09-21 16:09:00,88.2,65.4,29.51,SE,135,2.7,-999.0,47,-99.99,,,0.00,Acu-Link.com,2013-09-21 20:09:00,
2013-09-21 16:25:00,88.7,65.8,29.51,East,90,1.7,-999.0,47,-99.99,,,0.00,Acu-Link.com,2013-09-21 20:25:00,
2013-09-21 16:40:00,87.8,64.4,29.50,East,90,2.2,-999.0,46,-99.99,,,0.00,Acu-Link.com,2013-09-21 20:40:00,
2013-09-21 16:55:00,92.5,65.3,29.50,SSE,157,2.2,-999.0,41,-99.99,,,0.00,Acu-Link.com,2013-09-21 20:55:00,
2013-09-21 17:11:00,92.5,66.7,29.49,ESE,112,1.7,-999.0,43,-99.99,,,0.00,Acu-Link.com,2013-09-21 21:11:00,
2013-09-21 17:26:00,91.9,64.1,29.49,NNW,337,2.2,-999.0,40,-99.99,,,0.00,Acu-Link.com,2013-09-21 21:26:00,
2013-09-21 17:41:00,90.9,64.6,29.49,West,270,5.3,-999.0,42,-99.99,,,0.00,Acu-Link.com,2013-09-21 21:41:00,
2013-09-21 17:56:00,91.4,64.3,29.49,West,270,1.7,-999.0,41,-99.99,,,0.00,Acu-Link.com,2013-09-21 21:56:00,
2013-09-21 18:11:00,90.5,63.5,29.50,NW,315,3.2,-999.0,41,-99.99,,,0.00,Acu-Link.com,2013-09-21 22:11:00,
2013-09-21 18:27:00,89.4,63.9,29.50,SSW,202,2.2,-999.0,43,-99.99,,,0.00,Acu-Link.com,2013-09-21 22:27:00,
2013-09-21 18:42:00,88.0,62.7,29.51,West,270,2.2,-999.0,43,-99.99,,,0.00,Acu-Link.com,2013-09-21 22:42:00,
2013-09-21 18:57:00,86.9,63.0,29.50,West,270,1.7,-999.0,45,-99.99,,,0.00,Acu-Link.com,2013-09-21 22:57:00,
2013-09-21 19:13:00,86.4,63.1,29.51,WSW,247,2.2,-999.0,46,-99.99,,,0.00,Acu-Link.com,2013-09-21 23:13:00,
2013-09-21 19:28:00,85.6,63.0,29.51,West,270,1.1,-999.0,47,-99.99,,,0.00,Acu-Link.com,2013-09-21 23:28:00,
2013-09-21 19:43:00,83.5,62.3,29.51,ENE,67,0.0,-999.0,49,-99.99,,,0.00,Acu-Link.com,2013-09-21 23:43:00,
2013-09-21 19:59:00,80.4,61.7,29.51,NNW,337,0.0,-999.0,53,-99.99,,,0.00,Acu-Link.com,2013-09-21 23:59:00,
2013-09-21 20:14:00,79.9,61.7,29.51,SW,225,0.0,-999.0,54,-99.99,,,0.00,Acu-Link.com,2013-09-22 00:14:00,
2013-09-21 20:29:00,79.5,61.9,29.53,ESE,112,0.0,-999.0,55,-99.99,,,0.00,Acu-Link.com,2013-09-22 00:29:00,
2013-09-21 20:44:00,79.3,62.2,29.54,West,270,0.0,-999.0,56,-99.99,,,0.00,Acu-Link.com,2013-09-22 00:44:00,
2013-09-21 21:00:00,79.5,62.4,29.55,SSW,202,1.7,-999.0,56,-99.99,,,0.00,Acu-Link.com,2013-09-22 01:00:00,
2013-09-21 21:15:00,80.1,64.5,29.56,West,270,2.7,-999.0,59,-99.99,,,0.00,Acu-Link.com,2013-09-22 01:15:00,
2013-09-21 21:31:00,80.2,65.0,29.56,West,270,2.2,-999.0,60,-99.99,,,0.00,Acu-Link.com,2013-09-22 01:31:00,
2013-09-21 21:46:00,80.2,65.0,29.56,West,270,0.0,-999.0,60,-99.99,,,0.00,Acu-Link.com,2013-09-22 01:46:00,
2013-09-21 22:01:00,80.1,65.9,29.56,West,270,0.0,-999.0,62,-99.99,,,0.00,Acu-Link.com,2013-09-22 02:01:00,
2013-09-21 22:17:00,81.0,66.3,29.56,WSW,247,1.1,-999.0,61,-99.99,,,0.00,Acu-Link.com,2013-09-22 02:17:00,
2013-09-21 22:32:00,78.4,66.1,29.56,SSE,157,0.0,-999.0,66,-99.99,,,0.00,Acu-Link.com,2013-09-22 02:32:00,
2013-09-21 22:47:00,76.8,65.8,29.56,SSE,157,2.2,-999.0,69,-99.99,,,0.00,Acu-Link.com,2013-09-22 02:47:00,
2013-09-21 23:02:00,76.5,66.0,29.56,SE,135,0.0,-999.0,70,-99.99,,,0.00,Acu-Link.com,2013-09-22 03:02:00,
2013-09-21 23:18:00,76.6,65.7,29.57,SSE,157,0.0,-999.0,69,-99.99,,,0.00,Acu-Link.com,2013-09-22 03:18:00,
2013-09-21 23:33:00,76.1,65.2,29.57,SSE,157,1.7,-999.0,69,-99.99,,,0.00,Acu-Link.com,2013-09-22 03:33:00,
2013-09-21 23:48:00,76.5,65.6,29.57,ESE,112,1.7,-999.0,69,-99.99,,,0.00,Acu-Link.com,2013-09-22 03:48:00,